Volver al catálogo

STARLINK-34884

ActivoComunicacionesVLEO
NORAD 66287·PAYLOAD·🇺🇸 United States

Lanzado Oct 31, 2025 desde Vandenberg Space Force Base

Loading…

Próximos Pases (próximas 24 horas)

TLE

ActualizadoSource: CelesTrak SupGP

Época: Sep 14, 2026, 21:36 UTC

1 66287C 25247Y   26257.90048611  .00029207  00000+0  86342-3 0  2572
2 66287  53.1600  28.2511 0001112  73.9723 287.2225 15.34358911    10

Sigue STARLINK-34884 en tiempo real con AllMySat

Download on the App Store